This demonstration page uses our WeatherBlox Daily Observations layout. Learn more.

Left ArrowRight Arrow

Hourly Observations for April 3, 2020

Temp ( °F °C ) Dew Point ( °F °C ) Humidity (%) Winds ( mph kmh ) Pressure ( in mb ) Visibility ( mi km ) Precip ( " mm )
12:52 am 00:52 Cloudy 26 -3.3 24 -4.4 92 92 NNW 20 31 30.12 1020 10 16 0.00 0.00
1:52 am 01:52 Cloudy with Light Freezing Drizzle 26 -3.3 23 -5 88 88 NNW 22 35 30.14 1021 10 16 0.00 0.00
2:52 am 02:52 Cloudy with Light Freezing Drizzle 26 -3.3 23 -5 88 88 NNW 20 31 30.14 1021 4 6 0.00 0.00
2:58 am 02:58 Cloudy with Mist and Fog 26 -3.3 23 -5 88 88 NNW 21 33 30.20 1023 3 5 0.00 0.00
3:08 am 03:08 Cloudy with Light Freezing Drizzle 26 -3.3 23 -5 88 88 NNW 20 31 30.20 1023 4 6 0.00 0.00
3:52 am 03:52 Cloudy with Light Freezing Drizzle 26 -3.3 22 -5.6 84 84 NNW 22 35 30.15 1021 10 16 0.00 0.00
4:10 am 04:10 Cloudy 25 -3.9 21 -6.1 85 85 N 24 39 30.18 1022 10 16 0.00 0.00
4:52 am 04:52 Cloudy 25 -3.9 21 -6.1 85 85 NNW 23 37 30.16 1021 10 16 0.00 0.00
5:06 am 05:06 Cloudy with Light Freezing Drizzle 25 -3.9 22 -5.6 88 88 NNW 17 28 30.19 1022 10 16 0.00 0.00
5:11 am 05:11 Cloudy 25 -3.9 22 -5.6 88 88 NNW 17 28 30.22 1023 10 16 0.00 0.00
5:22 am 05:22 Cloudy with Mist and Fog 25 -3.9 21 -6.1 85 85 NNW 20 31 30.22 1023 4 6 0.00 0.00
5:25 am 05:25 Cloudy with Mist and Fog 25 -3.9 21 -6.1 85 85 NNW 20 31 30.23 1024 3 4 0.01 0.25
5:35 am 05:35 Mostly Cloudy 25 -3.9 21 -6.1 85 85 NNW 21 33 30.23 1024 1 2 0.03 0.76
5:49 am 05:49 Mostly Cloudy 25 -4 21 -6 86 86 NNW 15 24 30.24 1024 1 2 0.08 2.03
5:52 am 05:52 Cloudy 25 -3.9 22 -5.6 88 88 NNW 17 28 30.19 1022 1 2 0.09 2.29
6:18 am 06:18 Cloudy 24 -4.4 21 -6.1 88 88 NNW 21 33 30.21 1023 2 3 0.05 1.27
6:37 am 06:37 Cloudy 25 -3.9 21 -6.1 85 85 NNW 20 31 30.22 1023 3 5 0.06 1.52
6:43 am 06:43 Cloudy 25 -3.9 21 -6.1 85 85 NNW 21 33 30.23 1024 6 10 0.06 1.52
6:52 am 06:52 Cloudy 25 -3.9 21 -6.1 85 85 NNW 20 31 30.19 1023 10 16 0.06 1.52
7:04 am 07:04 Cloudy 25 -3.9 21 -6.1 85 85 NNW 18 30 30.25 1024 10 16 0.00 0.00
7:52 am 07:52 Cloudy 25 -3.9 21 -6.1 85 85 NNW 21 33 30.23 1024 10 16 0.00 0.00
8:52 am 08:52 Cloudy 24 -4.4 20 -6.7 84 84 NNW 21 33 30.24 1024 10 16 0.00 0.00
9:52 am 09:52 Cloudy 24 -4.4 19 -7.2 81 81 NW 24 39 30.26 1025 10 16 0.00 0.00
10:52 am 10:52 Cloudy 26 -3.3 21 -6.1 81 81 NNW 20 31 30.29 1026 10 16 0.00 0.00
11:52 am 11:52 Cloudy 27 -2.8 22 -5.6 81 81 NNW 18 30 30.30 1026 10 16 0.00 0.00
12:52 pm 12:52 Cloudy 28 -2.2 22 -5.6 78 78 NNW 18 30 30.29 1026 10 16 0.00 0.00
1:52 pm 13:52 Cloudy 29 -1.7 23 -5 78 78 NNW 20 31 30.28 1025 10 16 0.00 0.00
2:52 pm 14:52 Cloudy 30 -1.1 24 -4.4 79 79 NNW 21 33 30.27 1025 10 16 0.00 0.00
3:52 pm 15:52 Cloudy 31 -0.6 25 -3.9 79 79 NNW 18 30 30.27 1025 10 16 0.00 0.00
4:52 pm 16:52 Mostly Cloudy 31 -0.6 25 -3.9 79 79 NNW 16 26 30.25 1025 10 16 0.00 0.00
5:52 pm 17:52 Cloudy 31 -0.6 26 -3.3 82 82 N 15 24 30.27 1025 10 16 0.00 0.00
6:52 pm 18:52 Cloudy 30 -1.1 25 -3.9 82 82 N 16 26 30.29 1026 10 16 0.00 0.00
7:52 pm 19:52 Cloudy 30 -1.1 24 -4.4 79 79 N 18 30 30.29 1026 10 16 0.00 0.00
8:52 pm 20:52 Cloudy 29 -1.7 23 -5 78 78 NNW 17 28 30.31 1026 10 16 0.00 0.00
9:52 pm 21:52 Cloudy 28 -2.2 23 -5 81 81 NNW 16 26 30.32 1027 10 16 0.00 0.00
10:52 pm 22:52 Cloudy 28 -2.2 23 -5 81 81 N 16 26 30.32 1027 10 16 0.00 0.00
11:52 pm 23:52 Cloudy 28 -2.2 23 -5 81 81 N 15 24 30.32 1027 10 16 0.00 0.00

Powered by AerisWeather